Powrót do katalogu

STARLINK-31696

AktywnyŁącznośćVLEO
NORAD 59435·PAYLOAD·🇺🇸 United States

Wystrzelony Apr 7, 2024 z Vandenberg Space Force Base

Loading…

Następne Przeloty (najbliższe 24 godziny)

TLE

ŚwieżeSource: CelesTrak SupGP

Epoka: Sep 14, 2026, 21:03 UTC

1 59435C 24065Q   26257.87756944 -.00047019  00000+0 -13893-2 0  2570
2 59435  53.1563 119.8482 0001289  86.3790  77.8550 15.34411858    10

Śledź STARLINK-31696 w czasie rzeczywistym z AllMySat

Download on the App Store